Find Starlink 32379

NORAD ID: 61851 Int'l Des: 2024-202 Owner: SPXS Country: US Constellation: starlink operational
LEOCIRCULAR

リアルタイム位置

3D地球を読み込み中...

Starlink 32379について

説明を読み込み中...

次回通過

Passes for default location (London). Set your location on the main map for personalized predictions.

高度履歴

Loading altitude history...

軌道要素

1 61851U 24202G 26126.71875154 -.00001849 00000-0 -57724-4 0 9999
2 61851 42.9983 258.9197 0000647 240.7804 119.2982 15.27558499 84336
Epoch: May 6, 2026 • Age: 8 hours

現在のステータス

高度 482.5 km
速度 7.63 km/s
衛星直下点 13.72°N, 29.48°E
打ち上げ日 Nov 7, 2024
運用期間 1.4 years
タイプ internet

技術仕様

分類 Payload
質量 730.00 kg
乾燥質量 700.00 kg
総質量 730.00 kg
長さ 0.30 m
直径 4.10 m
スパン 29.00 m
形状 Box + pan
製造者 SPXS
バスタイプ Starlink V2M
フェーズステータス In Orbit
所有者/国 SPXS/US

Most Searched